Вернуться в каталог

BEIDOU 3M4

АктивенНавигацияMEO
NORAD 43108·PAYLOAD·🇨🇳 China

Запущен Jan 11, 2018 с Xichang Satellite Launch Center

Loading…

Ближайшие Пролёты (ближайшие 24 часа)

TLE

СвежийSource: Space-Track

Эпоха: Sep 13, 2026, 21:25 UTC

1 43108U 18003B   26256.89237622 -.00000062  00000-0  00000-0 0  9997
2 43108  54.2382 299.1955 0004307 262.2067  97.8053  1.86230868 59010

Отслеживайте BEIDOU 3M4 в реальном времени с AllMySat

Download on the App Store